Omaha, IA

3:24 AM CDT on May 25, 2017 (GMT -0500)
Eppley Airfield

Weather History for KOMA - February, 2013

Change the Weather History Date:

Thursday, February 14, 2013

  Actual Average Record
Temperature  
Mean Temperature 35 °F 28 °F  
Max Temperature 46 °F 38 °F 72 °F (1967)
Min Temperature 23 °F 18 °F -18 °F (1936)
Degree Days  
Heating Degree Days 30 37  
Month to date heating degree days 446 546  
Since 1 July heating degree days 3936 4311  
Cooling Degree Days 0 0  
Month to date cooling degree days 0 0  
Year to date cooling degree days 0 0  
Moisture  
Dew Point 26 °F    
Average Humidity 68    
Maximum Humidity 92    
Minimum Humidity 43    
Precipitation  
Precipitation 0.03 in 0.03 in 0.62 in (1969)
Month to date precipitation 0.06 0.38  
Year to date precipitation 0.56 1.10  
Snow  
Snow 0.30 in 0.20 in - ()
Month to date snowfall 0.3 3.2  
Since 1 July snowfall 12.4 18.3  
Snow Depth 0.00 in    
Sea Level Pressure  
Sea Level Pressure 30.07 in    
Wind  
Wind Speed 15 mph (NW)    
Max Wind Speed 26 mph    
Max Gust Speed 32 mph    
Visibility 8 miles    
Events Rain , Snow    
T = Trace of Precipitation, MM = Missing Value Source: NWS Daily Summary

Daily Weather History Graph

Daily Weather History Graph

Search for Another Location

Airport or City:

Trip Planner

Search our weather history database for the weather conditions in past years. The results will help you decide how hot, cold, wet, or windy it might be!

Date:

Astronomy

Feb. 14, 2013 Rise Set
Actual Time 7:19 AM CST 5:56 PM CST
Civil Twilight 6:50 AM CST 6:25 PM CST
Nautical Twilight 6:18 AM CST 6:57 PM CST
Astronomical Twilight 5:46 AM CST 7:29 PM CST
Moon 9:18 AM CST (2/14) 11:04 PM CST (2/14)
Length of Visible Light 11h 34m
Length of Day
10h 37m
Waxing Crescent, 22% of the Moon is Illuminated
Feb 14
Waxing Crescent
Feb 17
First Quarter
Feb 25
Full
Mar 4
Last Quarter
Mar 11
New

Hourly Weather History & Observations

Time (CST) Temp. Windchill Dew Point Humidity Pressure Visibility Wind Dir Wind Speed Gust Speed Precip Events Conditions
12:52 AM 42.1 °F 34.9 °F 28.0 °F 58% 29.81 in 10.0 mi WNW 13.8 mph - N/A   Scattered Clouds
1:52 AM 41.0 °F 33.9 °F 28.9 °F 62% 29.83 in 10.0 mi NW 12.7 mph - N/A   Scattered Clouds
2:52 AM 39.0 °F 30.6 °F 28.9 °F 67% 29.85 in 10.0 mi NW 15.0 mph - N/A   Partly Cloudy
3:52 AM 37.9 °F 31.5 °F 28.9 °F 70% 29.86 in 10.0 mi NW 9.2 mph - N/A   Clear
4:52 AM 37.9 °F 29.6 °F 28.9 °F 70% 29.89 in 10.0 mi NW 13.8 mph - N/A   Partly Cloudy
5:52 AM 35.1 °F 26.9 °F 28.0 °F 76% 29.91 in 10.0 mi NW 11.5 mph - N/A   Clear
6:52 AM 34.0 °F 25.5 °F 28.0 °F 79% 29.96 in 10.0 mi WNW 11.5 mph - N/A   Partly Cloudy
7:52 AM 34.0 °F 29.8 °F 28.0 °F 79% 29.98 in 10.0 mi NW 4.6 mph - N/A   Mostly Cloudy
8:52 AM 37.0 °F 31.6 °F 28.9 °F 73% 29.98 in 10.0 mi NW 6.9 mph - N/A   Mostly Cloudy
9:10 AM 37.4 °F 32.8 °F 28.4 °F 70% 29.97 in 10.0 mi West 5.8 mph - N/A   Mostly Cloudy
9:20 AM 37.4 °F 32.1 °F 28.4 °F 70% 29.97 in 10.0 mi WNW 6.9 mph - N/A   Mostly Cloudy
9:52 AM 39.9 °F 33.4 °F 30.0 °F 68% 30.00 in 10.0 mi WNW 10.4 mph - N/A   Overcast
10:52 AM 43.0 °F 34.8 °F 28.0 °F 56% 30.01 in 10.0 mi NW 18.4 mph 26.5 mph N/A   Mostly Cloudy
11:52 AM 43.0 °F 34.2 °F 25.0 °F 49% 30.01 in 10.0 mi NNW 20.7 mph 31.1 mph N/A   Overcast
12:52 PM 44.1 °F 35.4 °F 24.1 °F 45% 30.01 in 10.0 mi WNW 21.9 mph 28.8 mph N/A   Mostly Cloudy
1:52 PM 43.0 °F 35.1 °F 21.9 °F 43% 30.03 in 10.0 mi NW 17.3 mph 26.5 mph N/A   Overcast
2:52 PM 43.0 °F 34.5 °F 21.9 °F 43% 30.05 in 10.0 mi NW 19.6 mph 26.5 mph N/A   Overcast
3:52 PM 42.1 °F 33.6 °F 23.0 °F 47% 30.07 in 10.0 mi NW 18.4 mph 23.0 mph N/A   Overcast
4:52 PM 37.9 °F 27.9 °F 28.0 °F 68% 30.10 in 10.0 mi NW 19.6 mph 27.6 mph 0.00 in Rain Light Rain
5:52 PM 36.0 °F 25.3 °F 28.9 °F 76% 30.13 in 7.0 mi WNW 19.6 mph 31.1 mph 0.00 in Snow Light Snow
6:18 PM 35.6 °F 25.2 °F 30.2 °F 81% 30.10 in 5.0 mi WNW 18.4 mph - 0.00 in Snow Light Snow
6:31 PM 33.8 °F 24.3 °F 30.2 °F 87% 30.11 in 1.5 mi NW 13.8 mph 31.1 mph 0.01 in Snow Light Snow
6:42 PM 33.8 °F 26.4 °F 30.2 °F 87% 30.11 in 3.0 mi NNW 9.2 mph - 0.01 in Snow Light Snow
6:52 PM 33.1 °F 25.5 °F 30.9 °F 92% 30.14 in 6.0 mi NW 9.2 mph - 0.01 in Snow Light Snow
7:08 PM 33.8 °F 27.7 °F 30.2 °F 87% 30.11 in 9.0 mi NNW 6.9 mph - 0.01 in Snow Light Snow
7:33 PM 33.8 °F 27.7 °F 30.2 °F 87% 30.13 in 3.0 mi North 6.9 mph - 0.01 in Snow Light Snow
7:36 PM 33.8 °F 25.3 °F 30.2 °F 87% 30.13 in 2.5 mi North 11.5 mph 17.3 mph 0.01 in Snow Light Snow
7:45 PM 32.0 °F 20.5 °F 30.2 °F 93% 30.13 in 1.8 mi NNW 18.4 mph 24.2 mph 0.01 in Snow Light Snow
7:52 PM 32.0 °F 20.5 °F 30.0 °F 92% 30.17 in 1.5 mi North 18.4 mph - 0.01 in Snow Light Snow
8:01 PM 32.0 °F 20.1 °F 30.2 °F 93% 30.15 in 1.0 mi NNW 19.6 mph 27.6 mph 0.01 in Snow Light Snow
8:18 PM 30.2 °F 16.2 °F 26.6 °F 86% 30.16 in 1.0 mi North 25.3 mph 32.2 mph 0.01 in Snow Light Snow
8:24 PM 30.2 °F 18.1 °F 23.0 °F 75% 30.16 in 3.0 mi North 18.4 mph 32.2 mph 0.01 in Snow Light Snow
8:32 PM 30.2 °F 16.8 °F 24.8 °F 80% 30.17 in 9.0 mi NNW 23.0 mph 28.8 mph 0.01 in Snow Light Snow
8:44 PM 30.2 °F 17.4 °F 21.2 °F 69% 30.18 in 10.0 mi North 20.7 mph 29.9 mph 0.01 in Snow Light Snow
8:52 PM 28.9 °F 16.5 °F 19.9 °F 69% 30.22 in 9.0 mi NNW 18.4 mph 26.5 mph 0.01 in Snow Light Snow
9:52 PM 27.0 °F 14.3 °F 18.0 °F 69% 30.25 in 10.0 mi North 17.3 mph 28.8 mph 0.00 in   Overcast
10:52 PM 25.0 °F 11.3 °F 14.0 °F 63% 30.29 in 10.0 mi NNW 18.4 mph 25.3 mph N/A   Scattered Clouds
11:52 PM 23.0 °F 9.2 °F 14.0 °F 68% 30.31 in 10.0 mi NNW 17.3 mph - N/A   Partly Cloudy